Location: Grand Moustoir
(47.8355°N, 3.3120°W)
Time: 19:30:12
(UTC+00:00)

Cosmos 2263 Rocket - Pass Details

Date: 20 January 2020
Orbit: 823 x 849 km, 71.0° (Epoch: 16 February)

Event Time Altitude Azimuth Distance (km) Brightness Sun altitude
Exits shadow 05:48:25 13° 340° (NNW) 2,221 4.1 -20.7°
Maximum altitude 05:53:20 57° 58° (ENE) 983 2.7 -19.9°
Drops below altitude 10° 05:58:54 10° 137° (SE) 2,461 5.4 -19.0°
Sets 06:01:23 0° 141° (SE) 3,395 6.1 -18.6°
